Regional Weather Roundup
Issued by NWS Sterling, VA

Home | Current Version | Previous Version | Graphics & Text | Print | Product List | Glossary On
Versions: 1 2 3 4 5 6 7 8 9 10 11 12 13 14 15 16 17 18 19 20 21 22 23 24 25 26 27 28 29 30 31 32 33 34 35 36 37 38 39 40 41 42 43 44 45 46 47 48 49 50
094
ASUS41 KLWX 242211
RWRLWX

REGIONAL WEATHER ROUNDUP
NATIONAL WEATHER SERVICE BALTIMORE MD/WASHINGTON DC
600 PM EDT SAT JUN 24 2017

Note: "FAIR" indicates few or no clouds below 12,000 feet
with no significant weather and/or obstructions to visibility.
 TC=TEMPERATURE CELSIUS

 * =Non NWS site. Station does not report precipitation (e.g. rain,
    snow, etc.), thunder, or fog.

DCZ001-MDZ009-015-VAZ040>042-051-053>054-242300-
WASHINGTON METRO

CITY           SKY/WX    TMP DP  RH WIND       PRES   REMARKS
WASHINGTON NAT PTSUNNY   86  57  37 W12       29.89S
DULLES         CLOUDY    84  58  40 W7        29.90S
ANDREWS AFB    MOSUNNY   85  55  35 W13       29.88F
FT BELVOIR     MOSUNNY   86  57  36 W8        29.89S
QUANTICO       SUNNY     89  56  32 NW10      29.89F
COLLEGE PARK*  MOSUNNY   83  57  40 W5        29.88F
LEESBURG*      MOSUNNY  N/A N/A N/A W9        29.91S
MANASSAS*      MOSUNNY   85  60  42 NW8       29.90F
GAITHERSBURG*  MOSUNNY   81  59  47 W10       29.92S

$$

MDZ006>007-011-014-242300-
BALTIMORE METRO

CITY           SKY/WX    TMP DP  RH WIND       PRES   REMARKS
BWI AIRPORT    PTSUNNY   85  60  42 W13       29.87F
MD SCIENCE CTR   N/A     88  58  36 MISG      29.88R
MARTIN STATE   MOSUNNY   84  61  45 W14       29.88S
ANNAPOLIS      MOSUNNY   83  62  49 NW9       29.88S
FORT MEADE*    MOSUNNY   79  63  57 W8        29.91S

$$

MDZ012-015-019>023-242300-
MARYLAND EASTERN SHORE

CITY           SKY/WX    TMP DP  RH WIND       PRES   REMARKS
OCEAN CITY     MOSUNNY   85  65  51 W8        29.87S
SALISBURY      MOSUNNY   85  67  54 SW9       29.87S
BAY BRIDGE AP* SUNNY     84  61  45 W10       29.88S
CAMBRIDGE*     SUNNY     86  63  45 VRB6      29.87S
EASTON*        MOSUNNY   86  57  37 NW10      29.91S

$$

MDZ017>025-242300-
SOUTHERN MARYLAND

CITY           SKY/WX    TMP DP  RH WIND       PRES   REMARKS
PATUXENT RIVER CLOUDY    87  62  43 NW12      29.87F
ST INIGOES     MOSUNNY   88  67  49 W6        29.86F HX  91
LEONARDTOWN*   CLOUDY    84  61  45 W6        29.89F

$$

MDZ003>005-242300-
NORTH CENTRAL MARYLAND

CITY           SKY/WX    TMP DP  RH WIND       PRES   REMARKS
FREDERICK*     SUNNY     84  54  34 W7        29.92S
HAGERSTOWN APT MOSUNNY   84  58  40 SW8       29.89S
WESTMINSTER*   NOT AVBL

$$

MDZ501>502-242300-
WESTERN MARYLAND

CITY           SKY/WX    TMP DP  RH WIND       PRES   REMARKS
OAKLAND*       NOT AVBL
CUMBERLAND*    MOSUNNY   82  55  39 W10G16    29.94S

$$

VAZ025>031-242300-
SHENANDOAH VALLEY

CITY           SKY/WX    TMP DP  RH WIND       PRES   REMARKS
WINCHESTER*    CLOUDY    81  55  41 W7        29.91F
FRONT ROYAL*   PTSUNNY   82  57  42 NW3       29.91S
LURAY*         PTSUNNY   81  59  47 CALM      29.93S
NEW MARKET*    SUNNY     82  54  37 CALM      29.91S
STAUNTON*      SUNNY     82  59  46 W3        29.95F
WAYNESBORO*    SUNNY     81  63  54 SW6       29.95F

$$

WVZ021-048>050-054>055-242300-
EASTERN WEST VIRGINIA PANHANDLE

CITY           SKY/WX    TMP DP  RH WIND       PRES   REMARKS
MARTINSBURG    MOSUNNY   82  55  39 W10       29.89F
PETERSBURG*    PTSUNNY   82  57  43 W10       29.94F

$$

VAZ036>039-050-242300-
CENTRAL FOOTHILLS

CITY           SKY/WX    TMP DP  RH WIND       PRES   REMARKS
CHARLOTTESVILL MOSUNNY   87  59  38 VRB3      29.90F
CULPEPER*      MOSUNNY   85  61  44 NW6       29.91F
ORANGE*        SUNNY     84  59  42 CALM      29.90F
GORDONSVILLE*  MOSUNNY   87  59  38 SW3       29.90S
WARRENTON*     MOSUNNY   87  50  27 W8        29.90F

$$

VAZ055>057-242300-
NORTH AND CENTRAL PIEDMONT

CITY           SKY/WX    TMP DP  RH WIND       PRES   REMARKS
FREDERICKSBRG* SUNNY     88  59  37 NW5       29.87F
STAFFORD*      SUNNY     86  54  32 NW10      29.93F

$$

NCZ024-NYZ072-PAZ021-071-VAZ022-071-242300-
OTHER REGIONAL OBSERVATIONS

CITY           SKY/WX    TMP DP  RH WIND       PRES   REMARKS
NEW YORK CITY  MOSUNNY   83  53  35 W9        29.82S
PHILADELPHIA   MOSUNNY   86  57  37 W13       29.84S
PITTSBURGH     MOSUNNY   76  56  49 W10G20    29.92S
ROANOKE        MOSUNNY   84  61  45 NW10      29.96S
RICHMOND       CLOUDY    88  66  48 W8        29.88F HX  90
RALEIGH        TSTM      77  69  76 N9        29.92R

$$

ANZ530>537-242300-
MARINE OBSERVATIONS

STATION/POSITION TIME  TEMP    WIND        PRES
                       AIR SEA DIR/SP/G
                 (UTC) (F)     (DEG/KT/KT) (MB)
THOMAS PT LIGHT  2200   84 78  290/ 13/ 14   N/A
BALT KEY BRIDGE  2142   83     250/ 13/ 16 1011.1F
COVE POINT       2142   85     320/  6/  9 1012.2F
LEWISETTA        2142   84 79   20/  3/  4 1011.6F
SOLOMONS ISLAND  2142   85 76  330/  8/ 13   N/A
PINEY POINT      2142          330/  5/  5   N/A

$$





USA.gov is the U.S. government's official web portal to all federal, state and local government web resources and services.